Regional Weather Roundup
Issued by NWS

Home | Current Version | Previous Version | Graphics & Text | Print | Product List | Glossary On
Versions: 1 2 3 4 5 6 7 8 9 10 11 12 13 14 15 16 17 18 19 20 21 22 23 24 25 26 27 28 29 30 31 32 33 34 35 36 37 38 39 40 41 42 43 44 45 46 47 48 49 50
967
ASUS43 KDMX 181601
RWRIA

WEATHER ROUNDUP FOR IOWA
NATIONAL WEATHER SERVICE DES MOINES IA
1000 AM CST SUN FEB 18 2018

NOTE: "FAIR" INDICATES FEW OR NO CLOUDS BELOW 12,000 FEET WITH NO
SIGNIFICANT WEATHER AND/OR OBSTRUCTIONS TO VISIBILITY.

* - THESE STATIONS ARE NOT NWS STATIONS...THUS NOT UNDER NWS
QUALITY CONTROL.  THEY ALSO DO NOT REPORT WEATHER SUCH
AS PRECIPITATION OR FOG.

IAZ001>003-012>014-020>022-031>034-043>046-181700-
   NORTHWEST IOWA

CITY           SKY/WX    TMP DP  RH WIND       PRES   REMARKS
CARROLL *      SUNNY     41  32  70 S25G38    29.78F
CHEROKEE *     SUNNY     40  28  63 S24G32    29.68F WCI  29
DENISON *      CLOUDY    41  30  65 S26G41    29.77F
LE MARS *      CLOUDY    39  28  65 S29G38    29.62F WCI  28
ORANGE CITY *  CLOUDY    39  30  70 S26G35    29.62F WCI  28
SHELDON *      SUNNY     39  28  65 S28G37    29.60F WCI  28
SIOUX CITY     SUNNY     41  27  57 S29G41    29.68F
SPENCER        SUNNY     37  28  70 S26       29.66F WCI  25
STORM LAKE *   SUNNY     39  30  70 S30G40    29.69F WCI  27
$$

IAZ055>058-069>071-079>083-090>094-181700-
   SOUTHWEST IOWA

CITY           SKY/WX    TMP DP  RH WIND       PRES   REMARKS
ATLANTIC *     CLOUDY    45  34  65 S28G35    29.83F
AUDUBON *      CLOUDY    45  34  65 S26G39    29.84F
CLARINDA *     CLOUDY    45  36  70 S25G33    29.91F
COUNCIL BLFS * CLOUDY    45  34  65 S28G40    29.80F
CRESTON *      CLOUDY    45  32  61 S31G41    29.90F
HARLAN  *      CLOUDY    43  34  70 S21G30    29.85F
LAMONI         CLOUDY    42  30  62 S22G32    29.95F
RED OAK *      CLOUDY    45  34  65 S25G33    29.87F
SHENANDOAH *   CLOUDY    45  34  65 S26G35    29.87F
$$

IAZ047>049-059>061-072>074-084-181700-
   CENTRAL IOWA

CITY           SKY/WX    TMP DP  RH WIND       PRES   REMARKS
AMES           CLOUDY    38  30  73 S20       29.89F WCI  28
ANKENY *       MOSUNNY   41  32  70 S20G29    29.91F
BOONE *        CLOUDY    37  30  75 S18G26    29.85F WCI  27
CHARITON *     CLOUDY    41  32  70 S25G35    29.96F
DES MOINES     CLOUDY    41  31  67 S22       29.92F
GRINNELL*      MOSUNNY   35  29  79 S24G30    29.99F WCI  23
KNOXVILLE *    CLOUDY    41  30  65 S15G22    29.97F
MARSHALLTOWN   CLOUDY    37  29  72 S18G33    29.94F WCI  27
NEWTON *       CLOUDY    37  30  75 S24       29.95F WCI  26
PELLA *        CLOUDY    38  31  73 S13       30.01F WCI  30
PERRY *        FAIR      40  32  74 S29G38    29.85F WCI  29
$$

IAZ004>006-015-016-023>025-035-036-181700-
   NORTH CENTRAL IOWA

CITY           SKY/WX    TMP DP  RH WIND       PRES   REMARKS
CLARION *      SUNNY     34  34 100 S26G35    29.83F WCI  21
ESTHERVILLE    CLOUDY    32  26  78 S33G41    29.67F WCI  17
FORT DODGE *   SUNNY     37  28  70 S24G32    29.80F WCI  26
MASON CITY     SUNNY     32  25  75 S20G33    29.85F WCI  20
FOREST CITY *  FAIR      34  28  80 S25G32    29.80F WCI  21
WEBSTER CITY * SUNNY     36  30  80 S25G33    29.81F WCI  23
IOWA FALLS *   FAIR      35  33  89 S26G36    29.88F WCI  23
$$

IAZ007>011-017>019-026>030-037>042-050>054-066-181700-
   NORTHEAST IOWA

CITY           SKY/WX    TMP DP  RH WIND       PRES   REMARKS
CEDAR RAPIDS   FAIR      32  26  78 S20G26    30.05F WCI  20
CHARLES CITY * FAIR      28  28 100 SE22G33   29.91F WCI  15
CLINTON *      LGT SNOW  25  23  93 SE15      30.17F FOG     WCI  12
DECORAH *      FAIR      27  27 100 S17G31    29.96F WCI  14
DUBUQUE        CLOUDY    26  22  84 S22       30.10F FOG     WCI  12
MONTICELLO *   FAIR      27  27 100 SE18G24   30.09F WCI  13
OELWEIN *      FAIR      28  28 100 SE24G36   29.99F WCI  14
WATERLOO       FAIR      31  25  78 S24G33    29.95F WCI  17
$$

IAZ064-065-067-068-078-181700-
   EAST CENTRAL IOWA

CITY           SKY/WX    TMP DP  RH WIND       PRES   REMARKS
DAVENPORT      FAIR      32  26  78 SE20      30.16F WCI  20
IOWA CITY      FAIR      32  26  78 SE13      30.10F WCI  22
MT. PLEASANT * CLOUDY    36  30  80 S16       30.11F WCI  26
MUSCATINE *    MIX PCPN  30  30 100 SE12      30.14F WCI  21
QUAD CITIES    FAIR      29  26  89 SE17      30.16F WCI  17
$$

IAZ062-063-075>077-085>089-095>099-181700-
   SOUTHEAST IOWA

CITY           SKY/WX    TMP DP  RH WIND       PRES   REMARKS
BURLINGTON     CLOUDY    37  29  72 S10       30.15F WCI  30
FAIRFIELD *    CLOUDY    37  28  70 SE17      30.06F WCI  28
FORT MADISON * CLOUDY    36  30  80 SE10G16   30.14F WCI  28
KEOKUK *       CLOUDY    39  30  70 SE13      30.13F WCI  32
OSKALOOSA *    FAIR      36  30  80 S17       30.02F WCI  25
OTTUMWA        CLOUDY    39  29  67 S18       30.03F WCI  30
WASHINGTON *   CLOUDY    37  34  87 S18G28    30.09F WCI  27
$$

ABBREVIATIONS USED IN REMARKS
   TC - TEMPERATURES IN CELSIUS
  WCI - WIND CHILL INDEX
   HX - HEAT INDEX
  VSB - VISIBILITY
$$





USA.gov is the U.S. government's official web portal to all federal, state and local government web resources and services.